Regional Weather Roundup
Issued by NWS Charleston, WV

Home | Current Version | Previous Version | Graphics & Text | Print | Product List | Glossary On
Versions: 1 2 3 4 5 6 7 8 9 10 11 12 13 14 15 16 17 18 19 20 21 22 23 24 25 26 27 28 29 30 31 32 33 34 35 36 37 38 39 40 41 42 43 44 45 46 47 48 49
000
ASUS41 KRLX 031510
RWRRLX
West Virginia Regional Weather Roundup
National Weather Service Charleston WV
1000 AM EST TUE MAR 03 2015

Note: "fair" indicates few or no clouds below 12,000 feet with no
significant weather and/or obstructions to visibility.

WVZ003-031600-
Northern Panhandle of West Virginia

CITY           SKY/WX    TMP DP  RH WIND       PRES   REMARKS
WHEELING       MIX PCPN  28  16  60 E7        30.09F
$$

WVZ009-031600-
Northwest West Virginia

CITY           SKY/WX    TMP DP  RH WIND       PRES   REMARKS
PARKERSBURG    LGT RAIN  34  21  59 NE3       30.12F
$$

WVZ006-031600-
Western West Virginia

CITY           SKY/WX    TMP DP  RH WIND       PRES   REMARKS
HUNTINGTON     CLOUDY    32  27  81 SE5       30.10F
$$

WVZ015-031600-
West Central West Virginia

CITY           SKY/WX    TMP DP  RH WIND       PRES   REMARKS
CHARLESTON     CLOUDY    33  29  85 CALM      30.10F
$$

WVZ022-031-031600-
North Central West Virginia

CITY           SKY/WX    TMP DP  RH WIND       PRES   REMARKS
CLARKSBURG     MIX PCPN  32  21  64 CALM      30.09F
MORGANTOWN     CLOUDY    36  16  44 SE7       30.09F
$$

WVZ025-035-042-045-031600-
Southern West Virginia

CITY           SKY/WX    TMP DP  RH WIND       PRES   REMARKS
BECKLEY        LGT RAIN  34  26  72 SE14G22   30.15F
LOGAN          CLOUDY    39  37  93 S8        30.08F
BLUEFIELD      CLOUDY    38  25  59 S14G21    30.17F
LEWISBURG      CLOUDY    34  27  76 N7        30.23F
$$

WVZ047-031600-
Northern Mountains of West Virginia

CITY           SKY/WX    TMP DP  RH WIND       PRES   REMARKS
ELKINS         CLOUDY    37  25  61 S8        30.14F
$$

WVZ052-031600-
Eastern Panhandle of West Virginia

CITY           SKY/WX    TMP DP  RH WIND       PRES   REMARKS
MARTINSBURG    CLOUDY    31  13  47 SE9       30.35F
PETERSBURG     CLOUDY    29  15  55 CALM      30.27F
$$


USA.gov is the U.S. government's official web portal to all federal, state and local government web resources and services.